CFI018 ZYTL-ZYDD

Flight info

Callsign CFI018
Flight time N/A
Altitude 22600
Route POVAG A326 SANKO B332 BIGBU H114 AKLAT
Aircraft A319/M-SDE2E3FGHIJWXY/LB2D1

Departure

Time 2026-04-20 03:43
Airport Dalian Zhoushuizi International Airport (ZYTL)

Arrival

Time N/A
Airport Dandong Langtou International Airport (ZYDD)
Time Latitude Longitude Altitude Speed Heading
2026-04-20 03:38 38.96167 121.55637 115 ft 0 kts 19°
2026-04-20 03:41 38.96180 121.55641 115 ft 5 kts 13°
2026-04-20 03:41 38.96224 121.55656 115 ft 7 kts 34°
2026-04-20 03:41 38.96262 121.55710 115 ft 9 kts 23°
2026-04-20 03:41 38.96334 121.55725 115 ft 11 kts
2026-04-20 03:42 38.96411 121.55707 115 ft 12 kts 317°
2026-04-20 03:42 38.96432 121.55598 115 ft 13 kts 276°
2026-04-20 03:42 38.96457 121.55273 115 ft 80 kts 275°
2026-04-20 03:42 38.96540 121.54215 313 ft 142 kts 275°
2026-04-20 03:43 38.96608 121.52987 1274 ft 140 kts 278°
2026-04-20 03:43 38.96657 121.51795 2258 ft 140 kts 279°
2026-04-20 03:43 38.96741 121.50510 3033 ft 155 kts 283°
2026-04-20 03:43 38.96892 121.49081 3758 ft 176 kts 284°
2026-04-20 03:44 38.97059 121.47447 4595 ft 196 kts 283°
2026-04-20 03:44 38.97224 121.45637 5497 ft 215 kts 283°
2026-04-20 03:44 38.97384 121.43721 6565 ft 225 kts 283°
2026-04-20 03:44 38.97545 121.41749 7795 ft 228 kts 283°
2026-04-20 03:45 38.97813 121.39803 9050 ft 223 kts 296°
2026-04-20 03:45 38.98548 121.38280 10196 ft 221 kts 313°
2026-04-20 03:45 38.99741 121.37181 11322 ft 228 kts 332°
2026-04-20 03:45 39.01301 121.36760 12445 ft 243 kts 352°
2026-04-20 03:46 39.03003 121.36946 13537 ft 254 kts
2026-04-20 03:46 39.04700 121.37857 14460 ft 284 kts 26°
2026-04-20 03:46 39.06052 121.39831 15295 ft 314 kts 54°
2026-04-20 03:46 39.06662 121.42660 15912 ft 348 kts 84°
2026-04-20 03:47 39.06522 121.45882 16561 ft 368 kts 96°
2026-04-20 03:47 39.06148 121.49166 17383 ft 377 kts 98°
2026-04-20 03:47 39.05672 121.52503 18241 ft 383 kts 108°
2026-04-20 03:47 39.04418 121.55485 19033 ft 382 kts 136°
2026-04-20 03:48 39.02349 121.57497 19895 ft 366 kts 165°
2026-04-20 03:48 38.99986 121.58137 20765 ft 340 kts 193°
2026-04-20 03:48 38.97726 121.57663 21686 ft 330 kts 202°
2026-04-20 03:48 38.95353 121.57522 22302 ft 360 kts 181°
2026-04-20 03:49 38.92865 121.58728 22652 ft 404 kts 157°
2026-04-20 03:49 38.90599 121.61126 22688 ft 441 kts 143°
2026-04-20 03:49 38.88346 121.63977 22689 ft 458 kts 142°
2026-04-20 03:49 38.86047 121.66775 22683 ft 462 kts 144°
2026-04-20 03:50 38.83619 121.69531 22693 ft 461 kts 146°
2026-04-20 03:50 38.81162 121.72173 22663 ft 459 kts 148°
2026-04-20 03:50 38.78701 121.74718 22691 ft 459 kts 149°
2026-04-20 03:50 38.76189 121.77269 22672 ft 457 kts 149°
2026-04-20 03:51 38.73698 121.79771 22697 ft 456 kts 149°
2026-04-20 03:51 38.71176 121.82286 22670 ft 458 kts 149°
2026-04-20 03:51 38.68653 121.84798 22681 ft 458 kts 149°
2026-04-20 03:51 38.66165 121.87274 22690 ft 457 kts 150°
2026-04-20 03:52 38.63647 121.89785 22667 ft 456 kts 150°
2026-04-20 03:52 38.61134 121.92282 22667 ft 455 kts 150°
2026-04-20 03:52 38.58615 121.94782 22648 ft 455 kts 150°
2026-04-20 03:52 38.56105 121.97270 22674 ft 457 kts 150°
2026-04-20 03:53 38.53606 121.99741 22691 ft 457 kts 150°
2026-04-20 03:53 38.51105 122.02219 22654 ft 455 kts 150°
2026-04-20 03:53 38.48603 122.04700 22666 ft 456 kts 150°
2026-04-20 03:53 38.47154 122.06130 22674 ft 456 kts 150°
2026-04-20 03:54 38.44619 122.08631 22666 ft 457 kts 150°
2026-04-20 03:54 38.42097 122.11121 22680 ft 458 kts 150°
2026-04-20 03:54 38.39601 122.13580 22666 ft 458 kts 150°
2026-04-20 03:54 38.37076 122.16073 22658 ft 456 kts 150°
2026-04-20 03:55 38.34547 122.18564 22667 ft 457 kts 150°
2026-04-20 03:55 38.32039 122.21027 22675 ft 456 kts 150°
2026-04-20 03:55 38.29621 122.23659 22652 ft 468 kts 140°
2026-04-20 03:55 38.27777 122.27100 22645 ft 480 kts 120°
2026-04-20 03:56 38.26786 122.31130 22665 ft 475 kts 103°
2026-04-20 03:56 38.26246 122.35282 22654 ft 473 kts 100°
2026-04-20 03:56 38.25772 122.39391 22659 ft 472 kts 100°
2026-04-20 03:56 38.25398 122.43537 22671 ft 472 kts 91°
2026-04-20 03:57 38.25697 122.47663 22660 ft 470 kts 75°
2026-04-20 03:57 38.26710 122.51623 22666 ft 469 kts 65°
2026-04-20 03:57 38.27921 122.55421 22659 ft 467 kts 64°
2026-04-20 03:57 38.29184 122.59244 22653 ft 467 kts 63°
2026-04-20 03:58 38.30405 122.63017 22646 ft 467 kts 64°
2026-04-20 03:58 38.31636 122.66885 22642 ft 468 kts 65°
2026-04-20 03:58 38.32840 122.70741 22682 ft 468 kts 65°
2026-04-20 03:58 38.34029 122.74579 22661 ft 466 kts 65°
2026-04-20 03:59 38.35207 122.78406 22649 ft 467 kts 66°
2026-04-20 03:59 38.36388 122.82260 22660 ft 466 kts 66°
2026-04-20 03:59 38.37550 122.86067 22656 ft 466 kts 66°
2026-04-20 03:59 38.38727 122.89922 22647 ft 467 kts 65°
2026-04-20 04:00 38.39910 122.93803 22643 ft 467 kts 66°
2026-04-20 04:00 38.41078 122.97623 22652 ft 467 kts 65°
2026-04-20 04:00 38.42243 123.01461 22625 ft 466 kts 66°
2026-04-20 04:00 38.43430 123.05356 22644 ft 467 kts 66°
2026-04-20 04:01 38.44591 123.09183 22658 ft 466 kts 66°
2026-04-20 04:01 38.45768 123.13076 22650 ft 467 kts 66°
2026-04-20 04:01 38.46931 123.16917 22664 ft 467 kts 66°
2026-04-20 04:01 38.48118 123.20859 22673 ft 464 kts 66°
2026-04-20 04:02 38.49281 123.24712 22639 ft 465 kts 66°
2026-04-20 04:02 38.50447 123.28584 22621 ft 466 kts 66°
2026-04-20 04:02 38.51605 123.32425 22622 ft 466 kts 66°
2026-04-20 04:02 38.52778 123.36321 22607 ft 468 kts 66°
2026-04-20 04:03 38.53939 123.40195 22639 ft 468 kts 67°
2026-04-20 04:03 38.55087 123.44029 22645 ft 468 kts 66°
2026-04-20 04:03 38.56250 123.47932 22644 ft 466 kts 66°
2026-04-20 04:03 38.57397 123.51765 22624 ft 466 kts 66°
2026-04-20 04:04 38.58549 123.55611 22606 ft 467 kts 66°
2026-04-20 04:04 38.59700 123.59486 22640 ft 466 kts 66°
2026-04-20 04:04 38.60856 123.63377 22638 ft 467 kts 67°
2026-04-20 04:04 38.62014 123.67257 22622 ft 467 kts 67°
2026-04-20 04:05 38.63164 123.71142 22620 ft 467 kts 68°
2026-04-20 04:05 38.64299 123.74984 22622 ft 468 kts 67°
2026-04-20 04:05 38.65464 123.78929 22623 ft 467 kts 67°
2026-04-20 04:05 38.66606 123.82777 22589 ft 467 kts 66°
2026-04-20 04:06 38.68196 123.86387 22591 ft 458 kts 45°
2026-04-20 04:06 38.70538 123.88955 22608 ft 439 kts 21°
2026-04-20 04:06 38.73312 123.90218 22597 ft 413 kts 359°
2026-04-20 04:06 38.76142 123.90434 22607 ft 401 kts 350°
2026-04-20 04:07 38.78950 123.90426 22626 ft 402 kts 349°
2026-04-20 04:07 38.81743 123.90453 22607 ft 404 kts 351°
2026-04-20 04:07 38.84559 123.90554 22586 ft 407 kts 352°
2026-04-20 04:07 38.87407 123.90716 22592 ft 408 kts 352°
2026-04-20 04:08 38.90210 123.90914 22559 ft 407 kts 353°
2026-04-20 04:08 38.93062 123.91141 22321 ft 408 kts 353°
2026-04-20 04:08 38.95853 123.91379 22098 ft 403 kts 354°
2026-04-20 04:08 38.98656 123.91627 21843 ft 404 kts 354°
2026-04-20 04:09 39.01488 123.91876 21597 ft 402 kts 354°
2026-04-20 04:09 39.04272 123.92123 21350 ft 399 kts 354°
2026-04-20 04:09 39.05744 123.92254 21225 ft 398 kts 354°
2026-04-20 04:09 39.07212 123.92383 21089 ft 397 kts 354°
2026-04-20 04:10 39.09024 123.92542 20929 ft 395 kts 354°